Flag for Hong Kong Weather past 2 weeks in Hong Kong, Hong Kong

Now
91 °F

Scattered clouds.


Feels Like: 105 °F
Forecast: 83 / 89 °F
Wind: 14 mph from Southwest

Location: National Airport

Current Time: May 28, 2015 at 3:14:28 PM

Latest Report: May 28, 2015 at 3:00 PM


Visibility: N/A

Pressure: 29.65 "Hg

Humidity: 63%

Dew point: 77 °F

Location of Hong KongLocation

Historic Weather in Hong Kong — Graph

°F

Hong Kong temperature yesterday

Maximum temperature yesterday: 91 °F (at 12:00 PM)
Minimum temperature yesterday: 84 °F (at 12:00 AM)
Average temperature yesterday: 87 °F

Past Weeks' High & Low Weather Summary

 TemperatureHumidityPressure
High91 °F (May 15, 1:00 PM)100% (May 20, 8:00 PM)29.92 "Hg (May 20, 8:00 PM)
Low75 °F (May 22, 12:30 AM)56% (May 15, 1:00 PM)29.65 "Hg (May 19, 5:30 PM)
Average83 °F80%29.75 "Hg
* Reported May 13 2:00 PM — May 28 2:00 PM, Hong Kong, Weather by CustomWeather, © 2015

Note: Actual official high and low records may vary slightly from our data, if they occured in-between our weather recording intervals... More about our weather records

Advertising

Hong Kong weather history for previous 24 hours

 ConditionsComfort  
Time TempWeatherWind HumidityBarometerVisibility
2:00 PM
Thu, May 28
91 °FScattered clouds.13 mph67%29.65 "HgN/A
1:30 PM91 °FScattered clouds.14 mph63%29.65 "HgN/A
1:00 PM91 °FScattered clouds.15 mph67%29.68 "HgN/A
12:30 PM90 °FScattered clouds.15 mph71%29.68 "HgN/A
12:00 PM88 °FScattered clouds.15 mph75%29.71 "HgN/A
11:30 AM90 °FScattered clouds.13 mph71%29.71 "HgN/A
11:00 AM91 °FScattered clouds.15 mph67%29.71 "HgN/A
10:30 AM90 °FScattered clouds.14 mph67%29.71 "HgN/A
10:00 AM90 °FPassing clouds.13 mph67%29.71 "HgN/A
9:30 AM90 °FPassing clouds.10 mph71%29.71 "HgN/A
9:00 AM88 °FPassing clouds.9 mph70%29.71 "HgN/A
8:30 AM88 °FPassing clouds.12 mph70%29.71 "HgN/A
8:00 AM86 °FPassing clouds.12 mph75%29.71 "HgN/A
7:30 AM86 °FPassing clouds.10 mph79%29.71 "HgN/A
7:00 AM86 °FPassing clouds.10 mph79%29.68 "HgN/A
6:30 AM86 °FPassing clouds.8 mph79%29.68 "HgN/A
6:00 AM86 °FPassing clouds.9 mph75%29.68 "HgN/A
5:30 AM86 °FPassing clouds.10 mph79%29.65 "HgN/A
5:00 AM86 °FPassing clouds.12 mph75%29.65 "HgN/A
4:30 AM86 °FPassing clouds.10 mph79%29.65 "HgN/A
4:00 AM86 °FPassing clouds.9 mph79%29.65 "HgN/A
3:30 AM86 °FPassing clouds.10 mph79%29.65 "HgN/A
3:00 AM86 °FPassing clouds.12 mph79%29.65 "HgN/A
2:30 AM86 °FPassing clouds.12 mph79%29.65 "HgN/A
2:00 AM86 °FPassing clouds.12 mph79%29.65 "HgN/A
1:30 AM86 °FPassing clouds.12 mph79%29.68 "HgN/A
1:00 AM86 °FPassing clouds.14 mph79%29.68 "HgN/A
12:30 AM86 °FPassing clouds.13 mph79%29.68 "HgN/A
12:00 AM86 °FPassing clouds.12 mph75%29.68 "HgN/A
11:30 PM
Wed, May 27
86 °FPassing clouds.13 mph79%29.71 "HgN/A
11:00 PM86 °FPassing clouds.10 mph79%29.71 "HgN/A
10:30 PM86 °FPassing clouds.12 mph79%29.71 "HgN/A
10:00 PM86 °FPassing clouds.12 mph79%29.71 "HgN/A
9:30 PM86 °FPassing clouds.12 mph79%29.71 "HgN/A
9:00 PM86 °FSprinkles. Passing clouds.13 mph79%29.71 "HgN/A
8:30 PM86 °FPassing clouds.12 mph79%29.68 "HgN/A
8:00 PM86 °FPassing clouds.12 mph79%29.71 "HgN/A
7:30 PM86 °FPassing clouds.10 mph79%29.68 "HgN/A
7:00 PM88 °FScattered clouds.12 mph70%29.68 "HgN/A
6:30 PM88 °FScattered clouds.12 mph70%29.68 "HgN/A
6:00 PM88 °FScattered clouds.10 mph75%29.65 "HgN/A
5:30 PM88 °FScattered clouds.12 mph70%29.65 "HgN/A
5:00 PM88 °FScattered clouds.13 mph70%29.65 "HgN/A
4:30 PM88 °FScattered clouds.14 mph70%29.68 "HgN/A
4:00 PM90 °FScattered clouds.13 mph71%29.68 "HgN/A
3:30 PM90 °FSprinkles. Scattered clouds.13 mph71%29.68 "HgN/A
3:00 PM90 °FScattered clouds.13 mph71%29.71 "HgN/A
Weather by CustomWeather, © 2015

See weather overviewHow to use our weather pages